{"data":{"norad_id":66137,"intl_designator":"2025-237Z","name":"STARLINK-35576","alt_names":[],"object_type":"PAYLOAD","status":"ACTIVE","operator":null,"country":"US","launch_date":"2025-10-22","launch_site_code":"AFWTR","launch_vehicle":null,"mission":null,"orbit_class":"UNKNOWN","rcs_meters":null,"size_class":null,"mass_kg":null,"dimensions":null,"purposes":["comms"],"wikipedia_slug":null,"has_3d_model":false,"image_url":null,"decayed_at":null,"tle_current":{"epoch":"2026-09-20T13:38:01.641120Z","epoch_age_seconds":94536,"freshness":"FRESH","line1":"1 66137U 25237Z   26263.56807455  .00017140  00000+0  51710-3 0  9990","line2":"2 66137  53.1567 211.1400 0001164  89.0328 271.0808 15.34408925 52490","mean_motion":15.34408925,"eccentricity":0.0001164,"inclination_deg":53.1567,"raan_deg":211.14,"arg_perigee_deg":89.0328,"mean_anomaly_deg":271.0808,"bstar":0.0005171,"rev_number":5249,"period_min":93.847212209092,"perigee_km":461.88044263859,"apogee_km":463.47298407106,"semimajor_km":6840.8137133548,"source":"CELESTRAK","updated_at":"2026-09-21T09:00:35.811042Z"}}}